Delta 168 - Orbit

View from above orbital plane
View from above orbital plane
View from above satellite
View from above satellite

Ground track
Ground track

The orbit data is extracted from the following two-line orbital elements,

1 14051U 83041B   13139.53243350  .00003904  00000-0  38262-3 0  2576
2 14051 025.3296 168.0443 1147713 092.2837 056.2186 12.97009270383864
Epoch (UTC): 19 May 2013 12:46:42
Eccentricity: 0.1147713
inclination: 25.3296°
perigee height: 395 km
apogee height: 2152 km
right ascension of ascending node: 168.0443°
argument of perigee: 92.2837°
revolutions per day: 12.97009270
mean anomaly at epoch: 56.2186°
orbit number at epoch: 38386

The dashed part of the orbit path shows where the satellite is in the earth's shadow,  

Developed and maintained by Chris Peat, Heavens-Above GmbH. Please read the updated FAQ before sending e-mail. Imprint. DLR